Theta_e
300 301 301 301 301 301 301 302 302 302 302 302 304 308 309 308 308 308 308 305 307 308 308 309 309 307 309 313 315 318 328 328 327 326 320 305 308 300 300 300 300 300 297 298 298
300 300 300 300 300 300 301 301 301 301 301 301 301 305 309 309 308 308 305 306 306 307 307 309 309 307 309 310 313 322 329 328 311 312 310 303 304 305 305 299 298 296 298 296 297
299 299 300 300 300 300 300 301 301 301 301 300 300 302 307 309 307 302 301 302 302 303 305 308 309 307 308 308 307 308 320 309 307 306 304 304 302 300 303 304 301 299 297 295 296
299 299 299 299 299 300 300 300 300 301 300 300 300 301 306 307 307 299 299 299 300 301 304 307 308 309 309 308 304 309 302 302 301 302 305 304 300 300 301 300 298 297 296 296 295
298 298 299 299 299 299 300 300 300 300 300 300 299 301 305 305 300 299 299 300 300 301 304 306 307 309 309 305 304 305 301 300 300 300 300 301 302 301 297 296 297 297 296 296 297
298 298 299 299 299 299 299 299 300 300 300 299 299 302 304 303 298 298 298 299 299 300 302 305 306 307 303 301 304 300 300 299 299 299 299 301 299 299 297 295 296 296 294 294 293
297 298 298 298 298 298 298 298 299 299 299 299 300 302 302 298 297 297 298 298 299 300 302 304 305 305 301 300 297 298 301 300 298 298 299 299 301 301 298 295 294 294 293 293 292
297 297 298 298 298 298 298 298 298 298 299 300 301 301 297 296 296 297 297 298 299 300 302 304 304 303 300 299 301 303 304 307 298 297 297 299 308 299 296 295 295 294 293 293 292
296 296 297 298 297 298 298 298 299 299 299 300 300 299 295 296 296 296 297 298 299 301 302 303 303 299 300 305 305 303 306 305 303 294 296 299 306 297 296 296 296 295 294 293 292
296 296 297 297 297 297 297 297 298 298 298 298 298 298 295 295 295 296 296 297 298 300 301 302 300 303 302 304 303 304 304 301 303 297 296 298 300 298 296 296 297 295 294 293 292
296 296 296 297 297 296 296 296 296 297 296 293 293 293 294 294 295 295 296 297 297 297 300 295 302 302 299 297 297 301 302 301 298 294 295 299 298 299 297 296 297 296 294 294 293
296 296 296 297 297 297 296 297 298 296 292 291 292 292 293 294 294 294 296 296 296 296 295 298 297 292 292 294 296 298 299 300 296 294 294 297 297 298 297 296 297 297 295 294 293
296 295 295 296 297 297 297 298 297 295 295 292 292 292 292 293 292 293 294 293 294 294 294 298 292 290 293 294 296 295 298 296 297 295 294 295 300 298 296 296 296 296 296 294 294
296 295 295 296 296 297 297 297 296 296 306 295 293 292 292 292 292 292 292 292 291 293 292 292 290 292 293 293 294 296 292 293 294 296 299 295 300 301 297 296 295 295 295 295 293
295 295 295 296 298 296 296 296 295 296 309 293 292 291 291 292 291 292 292 293 293 291 292 292 291 292 293 292 292 294 292 293 294 295 295 295 297 303 295 299 299 296 295 295 294
295 295 294 295 296 296 296 295 296 308 304 293 291 291 292 291 291 291 292 292 290 292 291 290 287 290 291 289 290 292 294 294 294 295 300 294 296 302 301 301 298 295 295 295 294
295 294 294 295 296 296 295 297 306 307 291 295 293 292 292 291 291 291 292 293 296 300 295 291 289 288 289 292 292 293 296 301 302 303 303 293 294 301 301 299 296 296 295 294 293
294 294 294 294 295 295 294 301 301 294 294 290 291 291 293 290 290 291 291 294 290 293 295 298 297 289 288 291 294 293 295 302 301 300 299 292 298 303 297 294 293 293 292 293 293
294 294 293 294 295 294 295 303 304 297 293 292 291 293 292 290 291 291 292 294 293 291 302 296 293 288 288 288 289 293 296 292 296 288 296 299 300 301 296 297 295 293 292 292 292
293 293 294 294 295 293 300 302 295 292 291 291 299 292 298 291 292 291 292 291 291 289 287 293 295 288 288 287 288 291 291 296 295 299 300 298 297 300 300 298 297 296 294 293 292
293 293 293 294 294 295 303 297 290 290 290 292 293 291 292 294 293 294 295 289 289 289 288 291 296 289 288 289 292 290 292 291 293 295 300 298 301 301 297 297 297 295 294 293 293
293 298 293 294 295 284 295 288 290 290 289 290 291 291 294 290 291 291 296 291 288 289 292 290 296 294 292 286 286 288 292 294 298 296 292 294 298 296 296 294 294 293 294 294 294
293 292 293 294 299 295 286 288 289 289 290 290 291 291 290 291 296 290 288 287 286 289 291 291 294 297 294 290 286 288 288 290 289 291 294 298 299 292 292 293 293 292 292 293 294
292 296 292 293 290 293 290 291 291 288 288 287 288 288 290 291 288 289 290 288 286 288 289 289 289 297 302 298 292 289 287 289 292 295 295 294 297 297 296 296 295 292 291 292 292
292 295 292 296 294 291 291 291 290 290 286 287 288 289 291 288 288 290 289 288 287 288 286 289 292 283 287 287 286 289 287 287 289 294 296 297 296 297 297 294 292 291 290 291 291
292 291 287 283 286 289 289 290 292 289 289 289 289 290 287 290 295 291 288 289 291 286 287 281 290 281 287 285 286 287 286 287 289 291 291 292 293 294 294 292 291 291 291 291 291
292 291 291 286 286 293 294 292 291 290 287 288 289 289 288 288 287 286 286 287 288 289 288 286 284 288 294 285 287 291 286 287 288 289 292 292 294 294 292 290 290 290 290 289 290
Wind_Speed
11 12 12 12 12 12 13 13 12 11 9 8 7 6 5 4 1 1 1 3 2 2 2 1 1 3 4 4 4 4 5 9 7 9 6 6 4 4 5 6 2 3 2 6 9
9 9 10 10 11 11 12 13 13 12 10 10 9 7 5 4 3 2 3 3 3 2 1 1 3 5 2 2 2 2 4 5 4 3 6 8 3 7 4 3 2 3 8 10 10
7 7 7 8 8 9 10 11 12 12 11 10 10 9 7 5 2 2 3 3 2 2 1 2 4 4 3 3 5 4 1 1 4 3 2 8 11 6 5 5 9 11 13 11 7
4 4 4 5 6 7 7 9 10 10 10 10 10 10 9 6 2 3 3 2 1 1 2 3 5 3 3 3 3 3 7 4 3 3 2 6 13 7 6 3 4 12 14 11 7
2 2 2 3 4 4 5 6 7 8 10 11 12 12 9 5 2 3 2 1 1 2 3 5 5 4 4 5 4 4 4 6 6 6 7 6 3 4 5 7 11 13 11 10 9
1 1 1 2 2 2 1 1 3 5 9 12 13 12 9 4 4 3 2 1 1 3 3 5 5 9 9 5 3 5 9 7 6 5 4 2 2 1 7 11 11 12 11 9 9
1 1 1 1 2 4 4 4 4 6 11 14 13 11 6 5 1 2 2 2 2 4 5 8 10 4 7 7 7 6 5 5 5 2 3 1 4 7 10 15 13 12 11 10 8
2 2 1 3 5 6 8 9 9 9 13 14 12 9 6 4 4 3 2 4 6 7 8 9 10 10 5 13 5 2 2 3 2 2 1 2 6 4 13 16 15 13 11 11 9
1 1 0 3 7 7 8 11 12 12 11 10 9 6 6 5 4 5 5 7 8 8 10 9 5 7 5 5 3 1 2 3 2 3 2 4 5 2 12 14 15 15 14 12 12
1 1 2 4 7 8 9 11 11 11 11 10 8 5 4 3 6 6 6 6 5 10 8 4 5 3 2 4 2 4 3 2 4 3 1 6 15 5 12 16 20 18 17 16 16
2 2 3 6 7 9 10 9 7 4 6 8 4 8 7 7 7 6 6 9 7 5 3 5 2 2 4 4 3 5 2 2 1 2 4 7 14 15 14 20 22 23 22 22 20
4 3 4 6 8 9 9 4 3 7 13 10 9 9 7 5 4 5 4 3 3 4 1 2 4 2 2 2 2 1 1 4 1 0 3 8 17 19 20 28 30 28 28 26 21
4 4 5 6 8 8 8 4 8 9 5 5 5 4 3 4 4 6 4 5 5 4 4 3 5 2 2 3 3 2 3 2 4 4 2 10 10 5 5 23 21 31 29 27 27
5 5 5 7 7 8 7 7 8 5 3 2 1 3 2 5 5 6 5 3 4 4 4 6 1 2 4 3 1 3 1 1 2 4 4 4 8 8 3 10 19 23 29 29 28
6 6 7 10 4 11 6 8 7 4 1 3 1 1 4 4 4 4 7 4 4 4 3 3 3 3 2 3 3 4 3 3 1 1 4 1 5 2 2 9 10 18 27 30 30
6 6 7 9 6 9 10 11 8 2 5 3 1 1 3 4 3 2 3 6 7 4 11 4 2 4 3 4 2 8 3 2 2 0 3 1 3 5 3 3 2 3 13 25 30
6 8 8 8 7 12 14 10 3 3 3 3 3 2 3 2 2 2 2 3 3 4 3 2 3 2 1 5 2 2 3 1 2 2 3 0 4 11 11 10 8 11 8 15 26
7 7 8 8 9 16 15 3 3 1 5 1 4 4 3 1 1 1 4 3 3 1 3 5 3 2 2 3 1 3 2 2 4 3 3 2 7 4 2 6 9 7 7 8 20
7 7 7 9 12 17 6 2 5 6 6 11 4 3 2 2 2 2 4 3 2 6 4 4 3 1 2 2 2 4 3 2 5 2 2 4 6 10 8 5 10 7 6 5 12
9 7 7 10 14 15 2 4 2 1 6 3 5 2 6 5 5 5 6 3 4 2 0 5 4 1 1 2 5 1 5 2 0 3 5 5 6 8 6 5 9 10 7 5 7
11 5 8 12 15 7 3 4 3 4 3 4 4 5 2 6 4 4 4 3 3 5 3 3 2 3 2 7 7 4 4 1 2 2 3 4 4 4 5 3 4 8 7 4 7
9 2 12 18 3 1 3 5 4 5 3 1 3 3 4 7 5 4 6 0 6 8 6 4 2 3 2 3 4 2 4 8 4 5 2 3 9 4 6 7 5 5 9 7 7
7 5 13 21 4 3 0 1 4 4 4 4 3 1 2 6 3 3 3 1 8 6 5 7 3 2 2 3 1 6 5 4 3 1 6 4 6 1 4 8 3 5 9 10 12
8 3 4 12 4 5 5 4 5 2 2 4 4 3 3 2 2 5 5 2 6 2 4 4 1 4 4 3 5 5 6 11 5 4 5 11 21 10 11 11 9 5 12 20 17
9 4 8 4 6 4 4 7 6 6 2 5 1 5 6 4 2 4 3 4 2 4 2 2 5 2 4 3 3 3 5 13 13 14 11 19 20 11 7 4 9 21 17 16 16
8 7 7 5 7 8 3 9 11 5 9 6 5 11 8 6 7 9 8 6 5 4 5 0 3 4 4 3 8 5 9 12 18 13 20 21 25 18 24 18 13 13 15 15 15
19 10 5 7 5 5 6 8 12 12 9 4 12 6 9 7 5 6 6 7 9 8 8 6 6 3 3 3 4 8 12 20 10 9 13 14 20 12 3 5 12 15 13 16 15
Wind_Direction
247 249 251 258 258 265 259 256 251 248 247 246 238 234 226 222 218 225 256 293 285 280 280 262 226 175 159 148 145 153 227 234 224 215 154 144 150 122 119 119 137 180 139 167 177
256 252 258 262 261 261 261 261 257 251 243 238 229 217 220 199 165 178 315 299 283 266 296 163 185 162 121 102 67 221 230 237 23 82 140 132 106 144 148 154 110 134 171 157 164
269 262 266 267 265 268 271 265 258 247 236 227 219 208 196 177 143 351 343 295 280 262 203 158 155 147 100 77 17 29 291 55 39 30 128 165 132 151 162 209 210 212 167 164 151
266 271 277 276 271 268 267 262 253 247 233 215 208 202 188 179 231 3 28 357 276 194 166 156 151 116 84 99 32 119 59 53 36 34 124 139 132 131 174 167 196 156 159 156 162
286 295 298 295 290 285 282 258 241 226 219 201 194 192 173 163 125 329 341 24 111 140 165 160 150 127 114 100 95 80 106 65 77 76 84 126 98 146 162 158 158 165 169 174 185
316 307 328 334 316 324 311 194 203 184 182 179 184 181 174 160 303 318 314 280 189 158 150 157 145 122 99 66 36 101 105 103 60 61 72 86 107 180 187 171 171 177 180 175 181
334 326 16 39 95 95 103 104 118 133 155 163 168 167 152 151 46 23 46 70 121 156 138 130 130 139 113 110 122 130 108 119 56 33 84 120 198 223 174 172 175 179 182 186 191
333 337 31 101 108 100 99 97 100 119 140 148 151 145 105 138 61 35 104 96 102 115 133 128 117 111 76 118 88 113 159 201 77 349 92 221 249 160 174 179 190 194 195 197 198
313 304 161 130 133 123 114 108 106 115 127 135 140 138 105 98 89 80 101 111 108 116 121 123 117 85 109 141 135 94 243 230 175 40 319 233 278 131 184 197 207 207 207 207 207
263 233 194 163 152 138 130 121 113 113 115 121 136 124 116 91 84 82 96 117 113 121 107 91 67 97 98 197 232 168 193 211 263 32 268 248 262 224 202 210 219 216 212 212 213
240 225 203 184 168 157 146 134 125 90 95 87 95 95 104 102 84 77 108 105 108 83 70 26 129 99 52 35 72 107 138 253 190 40 291 262 271 266 226 221 226 222 217 216 215
215 214 215 197 181 176 174 169 170 143 98 76 85 91 91 105 102 69 99 111 75 87 1 118 78 56 50 50 76 110 228 254 193 15 268 296 280 269 231 229 225 222 220 216 211
204 207 205 200 191 186 186 169 145 135 82 51 67 72 62 99 77 28 68 91 80 79 33 101 118 186 156 117 135 36 290 287 305 314 230 300 268 258 235 236 234 230 228 220 211
202 198 198 185 189 190 186 175 162 152 89 50 354 31 31 119 64 49 61 88 60 123 97 74 146 157 133 113 206 172 70 350 318 297 307 343 297 281 243 246 230 235 224 219 211
199 191 186 176 179 176 180 170 159 136 193 71 45 113 62 90 123 36 47 75 95 109 223 118 129 141 121 59 335 95 139 120 117 273 306 128 266 257 253 277 257 235 227 220 212
199 191 189 190 192 175 161 150 137 47 242 157 283 165 136 42 53 69 75 78 110 89 53 83 44 22 75 75 54 137 123 105 102 312 248 46 276 294 224 230 298 331 236 223 212
197 194 189 187 185 166 152 141 70 197 32 190 159 157 65 74 80 34 100 109 179 133 158 113 58 77 59 109 111 206 190 254 252 210 277 69 247 268 276 293 293 299 284 229 214
193 190 197 195 174 165 150 85 174 40 206 134 122 95 147 173 77 116 132 177 214 169 132 179 188 150 18 3 277 167 258 211 243 255 327 127 245 256 66 325 300 291 285 245 213
185 180 185 181 171 168 160 140 220 193 151 152 104 154 198 202 172 171 203 211 182 193 192 143 121 58 72 112 321 151 224 20 106 88 270 245 265 272 99 43 18 337 285 266 218
181 177 178 171 168 167 96 256 222 157 126 170 175 225 169 187 171 191 177 148 159 192 355 166 114 2 84 134 68 255 137 137 246 219 241 239 272 255 336 12 0 9 335 285 241
180 176 179 165 158 169 196 220 213 197 162 177 171 138 175 169 197 187 172 157 188 140 112 135 266 124 153 213 180 156 189 127 324 256 250 284 252 187 224 275 328 345 334 314 264
181 165 173 163 128 51 184 184 169 168 178 150 102 95 160 161 154 216 212 249 165 157 163 167 105 173 150 72 353 320 207 190 220 199 253 340 270 176 249 270 257 325 355 344 307
184 149 174 178 171 200 137 212 205 148 188 157 147 85 161 167 177 181 178 89 162 162 156 182 189 156 182 120 30 248 205 178 98 39 201 235 251 165 261 254 238 310 320 354 334
180 136 150 199 207 144 151 190 178 189 136 136 131 104 124 132 30 171 163 153 186 172 129 139 134 238 230 115 116 194 199 201 187 189 219 230 272 232 260 270 298 324 330 320 309
202 209 168 181 216 166 173 146 147 179 193 185 173 213 165 134 118 195 138 131 163 197 93 179 200 216 283 221 193 196 172 190 205 213 213 263 248 262 269 309 309 305 308 309 300
193 170 163 160 141 137 197 205 175 163 158 218 214 185 180 164 186 184 144 191 188 156 162 315 189 138 275 232 229 246 218 211 221 234 249 260 276 274 280 278 284 303 304 300 301
207 199 175 158 156 156 205 190 195 148 209 203 193 134 198 216 130 91 97 103 143 156 164 169 149 149 250 337 288 265 208 202 201 209 221 232 244 290 278 294 302 303 296 293 299